Tracking 25734 objects as of 28-May-2022
HD Live streaming from Space Station
objects crossing your sky now

COSMOS 1275 DEB

Track COSMOS 1275 DEB now!
10-day predictions


NORAD ID: 42161
Int'l Code: 1981-053RZ
Perigee: 888.5 km
Apogee: 972.0 km
Inclination: 82.9 °
Period: 103.5 minutes
Semi major axis: 7301 km
RCS: Unknown
Launch date: June 4, 1981
Source: Commonwealth of Independent States (former USSR) (CIS)
Launch site: PLESETSK MISSILE AND SPACE COMPLEX (PKMTR)

Note: This is SATELLITE DEBRIS
aabbcc
Your satellite tracking list
Your tracking list is empty




NASA's NSSDC Master Catalog

Two Line Element Set (TLE):
1 42161U 81053RZ  22145.31993352  .00001170  00000-0  90013-3 0  9995
2 42161  82.9301 144.8718 0057159 347.2194  75.2292 13.91569965933623
Source of the keplerian elements: AFSPC